Dewpoint
45 46 47 46 45 43 42 42 41 42 41 41 41 39 38 38 37 35 33 33 31 31 31 29 28 29 29 29 29 29 28 28 24 17 17 15 23 29 28 28 28 30 30
44 44 44 45 45 45 43 42 41 41 42 41 40 39 37 36 36 34 32 32 31 30 30 30 29 30 30 30 30 28 27 27 23 16 14 13 19 27 27 26 24 22 31
43 42 42 42 42 42 42 41 41 41 41 41 40 38 36 35 34 33 32 31 30 29 29 28 28 29 30 29 30 29 26 23 19 13 13 14 16 24 18 18 19 20 25
42 41 40 40 40 40 39 39 40 40 40 39 38 36 35 34 33 31 30 29 28 28 28 27 27 26 26 26 26 23 26 20 16 13 11 11 14 16 19 15 18 19 21
40 40 40 40 39 38 37 37 38 39 38 36 35 34 33 32 31 31 29 29 28 27 27 27 27 29 29 26 22 19 21 17 14 11 10 11 11 14 19 17 13 17 18
38 38 38 38 38 36 35 35 34 34 34 34 34 33 32 32 32 32 31 29 27 27 27 27 27 28 28 26 22 20 18 16 13 12 10 9 12 13 14 17 13 12 15
38 38 37 36 35 34 33 32 32 32 33 33 33 33 32 32 33 32 30 28 27 26 25 24 25 25 25 24 23 22 21 20 17 13 10 11 12 15 15 16 15 12 11
36 36 35 34 34 34 33 31 32 32 32 31 31 32 32 32 32 31 29 27 26 25 25 24 22 21 21 19 16 17 18 17 16 15 15 16 17 16 17 13 12 13 14
34 33 33 34 34 33 32 32 31 30 30 30 30 31 31 31 32 30 27 26 24 24 24 23 21 20 21 19 17 18 19 20 20 19 20 18 17 17 15 12 12 12 10
34 34 33 33 33 32 32 31 31 30 29 29 29 30 31 30 31 29 26 24 22 22 23 24 20 20 18 18 19 18 17 17 16 13 13 13 14 18 17 16 18 7 9
33 33 33 33 32 32 31 29 28 27 27 27 26 27 29 30 30 29 26 24 22 22 22 22 22 22 21 20 19 17 15 15 14 13 13 13 12 11 10 10 12 7 7
32 32 32 32 31 31 29 27 27 26 24 23 24 25 26 28 29 28 27 24 24 21 21 22 23 22 21 19 18 18 16 14 13 12 12 11 11 11 11 11 12 11 12
31 31 31 30 30 29 27 25 24 23 22 22 22 22 24 26 27 27 26 25 23 20 21 21 21 21 19 19 17 17 14 13 12 11 11 11 10 10 11 13 12 10 8
30 30 29 29 28 27 26 25 23 23 22 23 22 22 22 24 25 25 24 21 21 20 22 21 20 19 18 19 18 14 13 12 11 10 10 9 8 11 13 12 11 5 4
30 29 28 28 27 26 25 25 24 24 23 22 22 22 21 21 23 23 20 18 19 17 16 16 17 16 15 14 12 11 11 12 11 9 9 8 9 11 10 10 9 9 3
28 28 27 26 25 25 25 25 27 26 27 26 25 24 24 24 25 24 20 18 18 17 15 14 13 14 14 13 12 12 11 11 10 9 9 8 7 6 6 6 8 5 2
27 27 26 26 25 25 24 24 23 26 27 27 26 26 25 25 25 24 22 20 19 15 13 13 12 13 13 13 13 12 11 11 11 11 10 8 7 5 5 5 7 4 4
26 26 25 25 25 25 24 23 23 23 22 24 26 25 25 26 26 24 23 21 17 13 11 12 12 12 14 14 13 11 11 12 11 10 9 9 7 6 5 5 5 5 5
25 24 24 24 24 24 24 24 24 23 23 23 24 24 25 26 25 23 21 17 13 11 11 11 12 13 14 14 12 11 11 10 9 9 9 9 8 8 7 6 5 4 5
23 23 23 23 23 23 23 23 23 23 23 23 22 21 23 23 22 19 15 14 13 12 13 13 14 14 15 14 12 10 11 10 8 7 7 8 8 9 7 6 5 5 5
23 24 23 23 22 22 22 21 21 21 20 20 20 21 22 20 18 16 15 14 13 13 13 15 16 16 15 15 13 10 10 11 9 9 7 7 8 8 8 8 7 7 5
24 24 23 22 22 22 22 21 20 20 19 18 18 18 20 18 17 15 15 13 12 13 13 11 15 15 14 14 13 11 9 9 10 10 9 7 7 8 8 7 7 6 6
24 25 24 23 22 21 21 20 19 18 18 17 17 17 18 17 17 15 12 9 12 13 14 14 14 13 13 13 13 11 9 9 10 11 10 9 7 7 7 6 5 4 4
24 23 23 22 22 21 19 18 17 17 16 15 15 16 16 14 14 13 11 10 10 11 12 13 12 12 12 13 13 12 12 11 11 10 10 8 7 6 5 5 5 3 2
24 23 23 22 20 20 19 17 16 15 15 14 14 14 14 12 12 12 11 10 10 10 11 11 11 11 11 11 12 11 12 12 11 10 9 8 7 5 4 3 3 1 1
23 22 21 21 20 19 19 18 17 16 15 14 14 14 13 13 13 13 14 13 12 10 10 10 9 9 9 10 10 11 10 10 9 8 8 6 5 4 3 2 0 -0 -0
Wind_Speed
7 5 7 7 6 6 10 12 14 11 13 14 15 14 13 12 11 10 9 8 8 6 5 9 8 7 7 8 8 10 12 10 13 5 4 6 5 10 8 8 8 8 7
3 4 5 3 3 7 11 12 11 14 10 13 12 13 12 10 9 9 9 9 11 8 6 7 7 6 6 5 5 8 9 7 9 21 10 5 5 8 8 8 6 6 6
2 2 3 3 3 6 7 7 8 9 9 9 12 14 13 13 12 10 10 9 9 9 8 8 6 5 4 1 2 7 9 9 11 14 10 4 3 9 7 7 5 6 8
4 4 4 5 6 6 5 4 5 7 10 11 11 11 10 12 12 12 13 12 10 8 8 9 6 5 2 1 4 7 10 13 15 16 12 8 5 4 6 8 6 4 5
6 6 6 5 5 5 4 1 3 6 8 9 9 9 11 12 12 16 13 13 11 9 7 6 5 6 5 4 6 2 10 10 13 13 11 7 7 8 10 6 6 7 5
8 9 9 8 6 4 3 2 3 4 6 9 10 12 12 10 17 16 16 14 11 11 10 10 11 11 10 6 5 3 3 12 13 9 7 10 9 7 7 11 11 7 4
10 10 9 7 4 2 3 5 5 6 9 9 10 12 10 11 15 16 17 13 12 11 11 9 9 9 9 11 12 12 15 13 7 7 11 8 9 10 10 10 9 5 4
6 6 7 5 4 3 3 4 5 6 9 10 11 12 13 12 17 17 17 13 12 11 10 9 8 6 3 5 7 11 12 12 12 10 8 8 7 11 8 7 10 11 9
6 6 5 1 1 1 2 3 5 8 8 8 10 12 13 13 17 18 15 12 12 12 10 9 8 6 7 8 11 14 12 13 15 17 14 11 12 11 9 14 12 13 4
3 1 1 2 2 3 4 6 4 6 7 9 10 10 12 13 16 16 14 12 13 11 8 8 10 6 9 11 11 12 15 11 11 10 11 17 16 10 6 3 8 8 7
1 2 4 4 4 5 6 4 7 9 9 9 10 9 9 10 14 14 16 12 13 11 10 9 9 10 10 11 11 10 14 11 11 12 13 13 14 15 13 9 5 9 7
4 5 5 6 7 7 7 8 8 9 11 11 12 11 10 9 10 11 13 13 13 12 11 9 10 12 11 12 11 16 16 12 10 11 13 15 16 14 14 15 15 15 12
5 5 5 5 7 8 9 10 9 10 11 10 11 11 10 8 9 12 11 15 13 9 9 13 15 14 14 12 16 15 11 10 11 13 12 10 7 7 7 10 13 13 16
6 5 6 7 7 8 8 8 11 10 10 10 11 11 9 10 11 10 10 9 10 9 11 10 14 15 10 5 14 10 9 9 12 12 9 6 4 7 8 6 10 11 13
7 7 8 8 9 9 9 9 8 7 9 11 10 11 11 10 10 14 13 10 10 11 13 9 12 11 9 12 11 9 7 8 10 7 9 11 10 9 6 5 7 5 10
7 8 8 9 10 10 9 7 5 8 8 7 11 11 7 8 10 15 14 14 15 15 8 11 11 11 11 10 12 9 5 7 7 9 11 10 10 10 9 5 5 11 12
9 9 9 10 10 10 10 11 10 7 9 9 10 10 10 12 13 15 15 17 17 10 7 10 11 12 10 9 10 10 8 6 8 9 10 11 10 9 8 8 9 12 10
10 10 11 11 11 11 12 12 12 11 10 8 9 8 8 11 12 13 16 15 11 4 6 9 10 10 9 10 10 9 9 8 8 8 9 11 10 10 8 8 8 9 9
11 11 12 12 12 12 12 11 11 10 10 10 9 7 7 10 13 14 14 10 10 6 6 8 10 10 9 9 10 9 11 10 10 9 8 9 10 9 8 7 8 7 8
11 13 13 12 11 11 10 10 9 8 8 9 11 11 10 8 11 10 8 11 10 8 8 9 10 10 10 10 11 10 9 10 10 8 8 9 9 8 8 8 7 7 5
12 12 12 12 11 11 11 10 8 8 7 8 10 11 12 12 11 11 11 10 9 9 8 8 9 10 11 11 11 11 11 11 11 10 9 8 9 8 7 6 6 6 6
11 10 10 11 10 11 10 9 9 8 8 9 9 8 12 10 11 10 10 9 9 9 10 7 9 11 12 12 12 12 12 12 11 10 11 10 9 7 7 7 6 6 6
9 10 10 10 10 11 10 9 10 10 10 11 11 11 10 11 10 10 9 8 6 6 6 6 9 9 9 10 11 12 13 13 13 12 12 10 9 8 8 8 8 6 6
9 10 10 8 9 11 11 11 10 9 10 12 12 11 11 11 10 10 8 7 6 3 5 9 10 11 11 10 10 10 9 9 10 12 12 12 10 9 8 7 7 6 6
9 9 10 10 12 13 11 11 12 11 11 12 12 11 10 10 10 9 9 8 7 5 6 7 8 10 11 11 10 9 9 10 10 11 10 10 10 10 9 7 7 6 5
10 10 10 11 11 12 12 12 12 11 11 11 11 11 12 12 11 10 9 8 7 7 7 8 9 10 10 10 10 11 10 9 9 10 9 9 10 8 8 8 8 7 6
Wind_Direction
238 244 248 256 248 231 236 241 239 235 224 215 204 199 198 188 181 172 163 157 155 150 136 134 126 122 121 122 126 130 139 132 135 117 111 127 121 137 113 105 93 79 83
298 287 286 301 248 238 242 248 244 240 222 217 200 197 186 182 173 174 167 158 152 145 138 128 120 109 104 93 100 115 127 131 128 140 142 135 134 143 131 114 99 74 89
341 0 350 334 309 277 269 266 251 241 230 207 194 192 183 177 169 157 142 130 119 115 114 119 100 105 108 129 154 155 128 120 116 142 136 125 120 141 116 101 102 81 68
20 10 334 334 313 298 285 263 247 224 214 204 193 184 167 150 140 130 127 118 105 103 104 107 94 84 73 5 238 189 133 121 122 127 121 130 137 129 142 137 117 80 89
21 0 343 338 328 335 331 281 183 193 189 171 159 141 139 137 140 133 126 122 127 108 82 73 82 94 81 293 258 175 144 132 132 130 136 144 149 156 171 158 132 124 75
10 351 348 353 357 7 18 39 106 117 111 125 129 135 138 120 131 132 133 133 127 124 111 88 71 69 75 70 41 64 150 152 149 144 154 164 163 159 152 160 152 149 136
2 345 342 344 346 19 102 105 118 130 125 123 124 122 123 125 138 136 131 127 129 128 127 121 109 82 78 82 74 70 65 67 96 146 170 168 159 167 155 158 162 147 129
2 352 358 358 5 28 54 102 128 133 135 135 129 125 134 140 142 136 124 124 121 125 129 119 112 115 103 125 109 84 69 68 71 80 108 137 132 149 150 147 145 119 107
9 355 346 1 59 171 174 157 135 135 134 137 136 135 134 147 150 144 129 126 120 118 116 120 128 144 165 150 119 107 103 85 89 85 76 130 129 144 132 128 138 138 124
11 24 157 155 161 195 176 161 149 142 132 124 128 139 152 152 159 151 128 123 123 124 121 133 125 140 143 138 126 128 116 108 98 89 77 73 72 83 118 143 153 147 129
135 159 159 162 165 172 158 138 129 125 124 125 123 120 123 140 149 147 139 136 138 135 138 142 151 151 139 128 125 127 128 120 111 100 94 89 81 70 68 80 88 137 136
177 180 178 170 154 151 142 131 133 136 132 130 123 113 115 119 135 149 149 140 146 149 154 150 144 137 143 137 129 128 125 119 113 102 100 98 95 87 81 81 82 78 71
182 178 180 156 145 139 144 144 138 138 140 139 135 131 132 136 126 133 137 137 139 139 149 149 140 137 134 134 127 123 119 121 119 113 113 111 105 113 108 91 83 80 68
188 173 153 152 144 139 142 151 150 149 153 148 147 142 138 135 126 114 111 113 123 139 148 123 122 116 119 97 120 116 124 129 129 125 116 110 122 130 119 109 106 89 76
177 164 169 171 160 148 157 164 159 172 165 163 164 155 153 152 148 149 149 148 147 140 120 105 119 126 121 118 114 122 129 132 125 127 125 113 110 121 115 124 119 90 105
173 174 173 159 154 155 145 128 143 155 159 161 153 150 139 143 152 154 155 157 150 139 122 138 138 139 142 141 144 141 142 149 143 131 132 126 127 124 121 105 108 130 117
178 172 166 160 157 151 149 145 136 148 151 145 149 149 152 157 148 153 159 153 153 138 138 150 152 155 153 151 156 160 162 164 145 142 147 143 133 122 126 127 129 131 120
169 165 163 158 156 152 152 145 145 150 140 138 144 139 151 167 155 153 153 141 143 105 142 161 163 163 162 166 170 163 150 146 141 143 149 154 146 139 138 138 144 143 135
154 156 153 149 150 148 141 142 146 144 140 144 136 135 160 169 151 146 142 149 158 149 156 163 166 170 168 166 168 161 158 160 156 152 153 158 160 152 148 139 138 142 143
154 152 147 144 142 138 138 143 145 147 154 155 153 153 153 154 157 155 158 162 169 175 175 171 170 175 177 174 171 167 162 160 158 155 160 161 165 160 160 156 159 163 167
147 142 144 138 139 139 141 142 140 141 148 153 154 157 160 168 169 165 168 175 180 183 181 179 186 190 189 182 173 173 172 173 172 170 167 166 161 163 163 167 169 167 159
139 141 142 144 141 143 146 143 145 143 142 146 145 140 147 159 161 164 170 182 199 196 192 194 193 189 184 180 175 174 177 179 178 175 174 173 172 168 169 173 173 169 168
138 139 137 139 145 145 146 152 156 157 153 153 152 152 156 163 168 174 176 175 175 185 200 195 182 179 178 175 171 173 177 188 187 176 174 175 178 180 181 180 178 177 182
148 151 143 149 155 161 161 163 163 165 167 167 167 165 166 172 180 189 194 189 191 204 194 188 185 179 173 173 173 175 178 173 171 178 173 175 183 182 179 181 184 184 185
154 154 159 167 170 170 165 166 169 171 173 176 182 183 185 179 184 193 197 193 189 183 178 175 174 170 172 169 166 164 160 159 167 167 170 177 182 179 182 187 177 175 179
164 166 169 169 168 168 170 172 180 181 187 189 191 195 194 196 196 190 184 179 179 176 166 165 163 161 156 153 150 147 146 151 158 165 168 170 172 177 179 182 181 187 188